User: anonymous   Login
Location: Springfield
(37.2150°N, 93.2980°W)
Time: 13:54:49
(UTC-05:00)
Language:

Iridium 62 - Orbit

View from above orbital plane
View from above orbital plane
View from above satellite
View from above satellite

Ground track
Ground track

The orbit data is extracted from the following two-line orbital elements,

1 25285U 98021A   16275.37250989  .00000033  00000-0  48097-5 0  9995
2 25285  86.3978 332.1208 0002327  96.4308 263.7152 14.34229974967922
Epoch (UTC): 01 October 2016 08:56:24
Eccentricity: 0.0002327
inclination: 86.3978°
perigee height: 776 km
apogee height: 779 km
right ascension of ascending node: 332.1208°
argument of perigee: 96.4308°
revolutions per day: 14.34229974
mean anomaly at epoch: 263.7152°
orbit number at epoch: 96792

The dashed part of the orbit path shows where the satellite is in the earth's shadow,  

DLR